Lid_Strength_Index
4 4 4 4 4 4 4 4 4 4 4 4 4 3 3 3 3 4 8 7 6 1 -1 2 2 3 2 4 4 4 10 13 12 12 11 8 9 6 4 6 5 4 4 3 2
4 4 4 4 4 4 4 4 4 4 4 4 4 4 3 3 5 7 3 3 2 -1 2 5 6 5 5 5 5 7 10 12 8 9 10 8 8 6 7 7 7 6 4 3 2
4 4 4 4 4 4 4 4 4 4 4 4 4 4 3 3 8 9 1 0 1 -1 2 4 5 6 8 7 6 7 10 8 8 7 7 8 8 6 7 9 6 7 5 3 3
4 4 4 4 4 4 4 4 3 3 4 4 4 4 3 4 12 4 -1 -1 -1 0 3 6 7 8 9 9 6 9 7 7 8 7 7 8 7 7 7 7 4 4 4 3 4
4 4 4 4 4 4 4 4 4 3 4 3 4 4 5 8 9 6 -2 -1 -0 4 5 6 8 8 9 8 7 8 8 7 7 7 7 6 8 8 7 5 4 3 4 4 3
4 4 4 4 4 4 4 4 4 4 4 4 4 4 6 11 6 -0 -0 0 1 5 7 6 7 6 8 8 7 6 7 7 7 7 7 8 8 7 6 4 5 4 4 4 3
4 4 4 4 4 4 4 4 4 4 4 4 4 3 7 9 5 0 0 1 2 4 7 7 6 6 6 7 6 6 9 8 8 8 9 7 10 10 6 5 5 5 4 4 3
4 4 4 4 4 3 3 3 3 4 4 4 3 4 9 6 4 1 3 3 4 5 6 6 5 5 6 5 9 8 9 13 9 8 7 8 13 9 6 6 6 5 5 4 4
4 4 4 4 3 3 3 3 2 3 2 3 4 6 10 3 6 3 3 5 4 5 5 6 6 6 6 9 11 9 12 12 12 8 8 9 12 8 6 6 6 6 5 4 4
4 4 4 3 3 3 4 3 1 1 2 2 3 7 6 7 5 5 4 4 6 6 7 7 6 7 8 10 12 12 11 11 12 10 9 10 11 8 7 7 6 6 5 5 4
4 4 3 3 3 3 4 2 5 5 4 6 7 7 6 4 5 6 4 6 6 7 9 7 8 10 9 9 10 10 10 12 11 9 10 11 11 9 8 7 7 6 6 5 4
4 4 3 2 3 3 4 5 4 4 6 4 5 6 5 5 7 7 4 6 8 10 8 8 10 7 9 10 10 10 11 13 11 9 10 11 11 9 8 8 6 6 6 5 4
4 4 3 2 3 4 5 5 3 3 6 6 4 5 5 5 7 7 5 6 9 9 8 8 8 7 9 11 11 9 11 12 12 10 9 10 12 11 8 7 6 5 5 4 4
4 4 3 3 5 4 4 3 3 3 8 7 6 5 5 5 7 5 4 5 7 9 7 8 6 8 9 11 10 11 9 10 11 11 15 10 18 13 10 9 8 7 5 5 4
4 3 3 3 4 4 4 3 4 5 14 6 6 3 5 6 5 6 3 4 7 7 7 9 8 10 10 9 10 11 9 10 10 12 12 13 15 12 10 12 9 7 6 5 4
4 3 3 4 4 3 2 3 5 9 15 9 6 6 7 6 6 5 5 4 5 6 6 7 7 6 7 7 9 7 9 10 10 12 14 12 14 14 13 11 9 7 6 5 4
4 3 4 3 4 3 3 4 9 13 8 9 8 7 7 8 7 6 7 7 8 10 10 8 8 7 6 8 7 7 10 15 16 17 14 12 14 11 9 8 8 8 6 5 4
4 4 3 3 2 3 4 6 13 10 10 7 7 7 8 8 8 7 8 9 7 8 9 11 12 7 6 7 8 10 9 12 17 16 14 13 15 12 8 7 6 6 6 5 4
4 4 4 3 3 3 4 10 10 9 8 8 8 9 9 8 8 8 8 8 7 7 10 10 10 7 6 6 6 9 10 8 12 12 14 14 12 9 8 8 7 7 6 6 5
3 3 3 2 3 3 6 10 9 7 7 7 10 9 11 10 9 9 9 8 8 7 6 8 11 8 6 6 6 7 7 11 10 17 17 16 15 13 11 11 8 8 7 6 5
4 4 2 2 3 4 9 8 8 5 6 8 9 9 10 10 9 9 9 8 7 7 7 7 9 9 7 8 8 8 9 9 9 11 14 17 15 10 10 9 9 7 7 6 5
4 6 2 3 6 6 8 7 7 7 6 7 7 8 9 9 10 9 10 9 7 7 8 7 8 10 10 8 7 7 7 8 11 14 13 14 14 8 8 8 8 8 7 6 5
4 4 3 3 8 7 6 7 6 6 6 7 8 7 7 9 11 9 8 6 6 7 8 7 10 12 11 9 8 8 9 8 9 10 13 14 14 8 8 8 7 7 7 6 5
5 6 5 6 7 7 7 7 7 6 6 6 7 7 7 9 8 10 8 7 6 6 6 6 9 11 12 11 9 10 9 8 9 11 12 12 13 11 10 9 8 7 7 6 6
4 6 6 7 7 7 7 7 8 8 6 6 7 7 8 10 9 10 9 7 7 6 7 7 11 9 9 9 8 10 10 9 10 9 10 11 12 11 9 9 8 7 6 6 6
5 6 5 7 8 7 8 7 8 7 7 8 8 7 7 9 9 9 8 8 9 7 7 7 11 10 10 9 10 10 9 10 10 10 11 11 12 8 7 7 8 7 7 7 6
3 3 4 8 7 7 7 7 7 6 6 6 7 7 8 8 7 7 7 7 9 9 9 9 9 11 13 10 10 11 11 11 11 10 10 12 10 8 9 8 8 7 6 6 6